Wind_Speed
5 5 9 12 13 14 15 19 18 19 19 19 24 25 26 27 29 33 28 26 23 27 25 22 24 18 19 15 20 20 21 18 16 18 20 20 15 16 18 16 14 13 19
4 7 8 8 11 12 16 17 16 21 24 23 26 30 27 26 33 35 32 25 24 25 26 23 20 20 9 13 19 24 28 24 23 24 21 24 20 17 22 22 19 16 17
7 10 15 14 18 18 13 18 16 23 24 24 26 28 30 28 33 32 27 23 26 33 21 17 21 18 21 20 22 23 27 34 32 28 26 26 23 20 24 26 24 25 19
7 8 13 12 16 16 21 19 21 22 22 23 22 23 28 25 26 22 24 26 30 25 26 22 27 23 17 19 23 25 28 24 28 28 27 28 31 26 25 30 27 27 23
6 10 10 10 15 18 19 21 20 23 23 20 19 23 26 23 24 24 24 28 28 27 32 33 23 22 19 18 18 24 21 24 31 35 35 31 28 30 29 31 29 25 22
9 10 9 10 13 17 16 18 18 16 17 20 20 21 21 20 24 27 26 28 28 30 31 34 29 20 18 22 24 22 24 26 28 26 23 27 29 26 26 28 29 25 23
10 10 12 16 21 19 19 16 17 17 18 23 24 24 25 26 26 25 23 26 26 29 28 30 26 23 17 14 14 5 14 19 26 25 23 28 23 21 27 28 30 25 23
8 10 13 17 19 20 21 21 24 26 25 23 24 24 22 22 24 23 21 25 29 30 30 27 27 23 17 9 14 19 22 16 19 23 22 31 27 23 24 28 30 25 24
11 13 17 19 21 19 17 19 20 20 19 22 20 20 21 23 23 22 22 25 30 31 30 27 24 22 17 15 24 24 26 18 24 22 26 24 29 24 26 27 29 25 27
11 13 16 19 20 20 20 19 18 18 17 19 22 23 24 25 25 22 25 27 32 32 31 28 24 17 20 24 30 22 17 22 24 27 23 27 33 35 31 25 26 28 25
11 14 17 18 19 18 20 20 19 20 19 20 22 24 25 24 27 23 27 29 34 36 34 26 22 22 27 30 26 23 19 23 27 29 39 31 15 33 34 32 28 27 28
12 16 19 19 18 19 19 21 20 16 17 20 22 25 25 25 27 26 27 31 32 35 32 30 30 29 33 32 26 24 24 26 17 30 44 37 41 35 23 21 27 28 28
15 17 18 17 19 19 19 18 15 16 18 20 22 24 26 29 31 31 32 33 34 36 33 28 25 30 32 30 27 25 25 24 23 24 30 30 34 26 22 35 34 28 30
14 15 15 15 17 18 18 14 14 15 17 20 23 27 31 33 33 34 34 34 34 35 31 30 35 31 28 27 27 26 22 17 16 17 19 24 24 31 30 30 30 25 34
18 15 11 12 17 16 14 11 12 13 16 21 23 27 31 35 39 42 40 37 35 35 34 29 30 29 28 27 26 22 20 15 13 10 6 6 13 26 28 32 39 32 32
14 13 13 16 16 15 10 9 9 12 17 22 25 28 32 36 41 43 45 42 37 35 28 34 42 33 30 27 22 18 19 9 9 1 5 4 8 17 24 28 36 38 35
14 15 16 16 14 14 8 8 9 12 17 21 24 27 31 35 40 45 47 45 40 35 36 33 39 29 29 24 19 17 14 11 6 3 3 2 9 16 19 29 36 37 41
17 17 17 14 11 12 7 8 9 13 17 21 24 28 33 37 41 46 49 48 42 38 35 35 29 28 27 21 18 16 15 11 7 3 4 5 12 19 24 31 36 37 38
14 14 13 12 11 8 8 9 11 14 17 20 24 28 34 38 41 45 50 48 42 38 35 31 29 28 26 21 17 17 19 16 12 9 17 16 19 23 30 31 31 32 35
11 12 11 12 10 9 11 11 13 15 17 20 23 29 33 36 40 44 49 47 43 36 29 31 29 29 26 19 15 14 18 18 16 14 16 18 23 26 29 30 27 29 35
12 12 13 11 11 13 12 11 14 16 17 20 23 28 31 35 39 43 47 44 41 36 30 28 28 28 27 21 15 12 13 15 15 15 17 19 20 26 25 26 24 30 38
16 15 15 15 14 14 12 15 17 17 18 19 24 26 29 33 36 41 43 41 37 33 31 28 26 25 28 22 15 14 15 15 16 15 16 21 23 24 25 21 27 35 39
21 20 18 17 18 17 18 18 19 20 20 22 23 25 29 32 34 38 39 37 34 29 31 29 23 23 24 24 19 14 20 20 23 21 18 16 18 19 21 26 27 35 35
28 25 23 20 20 19 19 21 22 21 19 20 22 25 28 30 32 34 36 34 31 25 28 29 23 22 20 21 25 22 20 21 21 22 22 23 21 24 25 27 29 31 34
32 31 31 27 25 22 20 20 21 22 20 20 22 24 25 28 29 31 33 32 28 24 24 27 26 21 20 19 21 26 23 23 22 21 23 25 25 25 26 29 33 33 35
39 37 33 35 31 29 26 22 21 22 24 22 22 23 23 25 25 26 30 29 25 24 23 24 23 21 18 17 16 19 25 22 21 17 20 24 28 30 30 30 30 30 30
Wind_Direction
45 33 32 30 26 10 356 351 346 349 354 354 355 353 354 355 17 9 6 351 334 321 326 323 322 307 302 282 258 263 275 264 267 265 267 263 243 241 236 224 217 211 214
18 27 357 27 26 21 5 344 351 355 351 357 356 354 2 10 8 15 12 351 355 341 322 325 318 305 277 287 269 271 275 268 254 264 262 268 250 231 240 228 218 209 213
27 4 9 0 359 359 344 346 342 357 354 354 357 356 9 7 5 9 1 6 349 347 321 339 347 306 288 289 260 276 276 269 253 260 257 256 264 238 233 239 228 227 216
33 15 4 350 358 348 6 350 349 353 351 358 355 6 1 355 358 1 360 358 358 5 4 336 326 320 315 305 275 273 272 268 235 261 275 241 264 250 231 236 234 231 217
36 20 349 359 350 351 4 353 2 355 345 351 356 352 358 354 1 355 350 357 359 356 355 346 325 317 296 293 281 272 266 266 262 270 278 252 244 249 234 227 234 226 215
7 354 348 354 353 2 357 355 4 354 329 351 356 356 356 354 351 347 347 350 356 349 348 343 339 320 293 273 287 251 271 288 273 277 266 238 234 240 231 227 230 226 212
341 335 353 354 355 359 1 359 3 357 357 348 347 346 349 349 344 340 341 350 359 349 338 342 342 329 313 279 284 329 320 291 278 278 253 239 229 229 231 224 224 210 206
331 358 354 352 348 352 353 357 359 354 351 347 348 343 343 346 346 349 347 351 347 346 347 348 350 345 335 312 285 273 289 294 283 268 250 247 248 232 230 219 217 210 210
337 349 350 347 344 349 349 350 352 351 345 347 360 359 2 356 352 349 351 359 343 341 343 347 349 348 345 317 323 308 290 264 266 249 239 241 224 229 229 219 221 208 209
336 338 337 339 341 341 339 339 342 346 351 354 360 4 359 356 357 352 2 350 342 341 343 343 342 330 337 325 325 313 284 256 255 262 267 240 231 245 203 202 213 210 203
324 327 329 333 330 330 333 341 342 348 0 360 0 1 3 1 358 355 354 347 341 345 346 340 343 335 330 331 325 316 291 273 262 259 252 248 233 233 211 229 203 205 202
308 318 327 323 324 331 332 336 343 358 2 5 6 6 8 8 2 359 347 343 343 346 345 340 340 335 328 329 323 311 296 286 283 274 261 275 250 254 217 209 220 209 202
320 320 317 320 324 326 334 339 356 1 9 13 14 13 16 13 11 9 358 351 346 345 346 347 343 333 334 329 320 308 299 289 283 268 269 264 255 231 237 228 220 208 204
303 306 313 322 327 327 334 350 2 8 18 25 23 20 18 17 17 10 4 355 348 343 341 339 347 346 340 333 321 316 310 290 292 292 277 257 233 216 220 195 197 193 198
305 304 306 316 326 328 341 355 5 19 23 20 14 15 15 15 13 10 4 358 350 341 339 354 4 351 345 337 331 332 337 301 312 317 270 185 221 202 210 213 210 213 203
300 307 309 317 325 326 336 341 359 10 12 12 6 6 8 10 9 8 3 358 349 341 348 342 340 347 346 342 348 347 339 344 332 91 17 184 171 183 196 195 197 198 202
295 298 304 312 317 317 320 331 346 357 360 359 358 4 6 7 6 5 4 359 352 347 346 355 349 348 348 351 360 357 358 12 15 81 119 2 192 182 187 181 184 182 179
308 305 305 308 312 317 313 317 329 343 348 351 352 358 3 3 2 1 2 0 355 350 354 355 354 358 353 2 12 10 16 14 20 18 121 85 150 153 154 157 163 170 178
313 305 307 314 319 322 310 309 321 329 338 341 345 351 357 359 359 358 360 359 355 352 0 3 8 7 3 10 21 26 35 41 55 78 123 112 129 146 147 147 154 164 171
324 316 312 312 328 325 299 302 309 320 328 333 339 347 353 356 356 358 358 358 355 356 4 16 13 16 12 19 29 35 40 46 62 89 127 126 138 144 152 154 155 168 171
307 305 302 303 311 306 287 299 307 309 320 330 336 344 349 352 354 358 358 359 357 358 1 8 15 21 17 28 25 49 45 55 72 87 113 127 143 148 155 159 162 170 169
294 288 291 300 297 301 305 295 301 306 315 324 332 339 346 348 352 358 359 359 358 358 359 7 15 24 21 32 29 59 63 74 93 98 113 127 141 148 159 166 163 164 170
277 279 286 297 295 292 296 299 299 307 315 322 327 336 341 344 350 357 359 359 358 1 355 4 13 20 30 30 44 62 75 77 94 105 122 141 151 161 163 162 164 166 169
267 274 277 281 285 285 289 294 299 304 310 317 325 331 336 339 346 353 0 360 358 1 358 352 13 17 25 34 42 48 73 76 85 100 114 128 142 155 158 156 159 160 164
265 264 266 269 268 271 277 283 287 291 299 307 315 321 329 333 341 348 355 359 357 355 359 353 2 21 14 30 45 53 50 74 77 92 104 118 136 145 149 154 154 157 160
260 258 259 263 263 264 267 271 277 283 288 294 300 309 317 322 334 344 350 353 353 350 354 357 357 17 19 13 38 54 62 55 75 87 110 124 134 137 142 144 147 153 163
Height
5942 5940 5939 5939 5937 5936 5934 5933 5931 5929 5927 5923 5919 5916 5911 5908 5902 5898 5894 5891 5886 5883 5879 5878 5879 5879 5879 5880 5882 5882 5881 5881 5881 5882 5885 5884 5885 5888 5889 5891 5893 5893 5897
5940 5940 5939 5938 5933 5935 5936 5930 5927 5925 5924 5920 5914 5911 5906 5904 5900 5892 5893 5888 5883 5881 5880 5878 5875 5874 5875 5875 5875 5876 5874 5875 5876 5875 5879 5880 5881 5882 5883 5885 5887 5888 5891
5944 5945 5941 5938 5940 5939 5934 5935 5928 5923 5920 5916 5913 5909 5901 5899 5898 5897 5896 5892 5887 5882 5877 5876 5875 5873 5871 5870 5869 5868 5867 5867 5867 5869 5871 5874 5876 5878 5878 5878 5882 5885 5887
5944 5943 5941 5938 5938 5938 5931 5933 5928 5924 5921 5915 5914 5911 5908 5905 5903 5899 5895 5888 5883 5880 5878 5873 5871 5867 5864 5864 5862 5861 5859 5859 5861 5863 5864 5865 5868 5870 5872 5872 5875 5881 5883
5943 5942 5942 5941 5937 5936 5933 5932 5928 5925 5923 5921 5917 5914 5909 5904 5902 5898 5893 5887 5883 5878 5873 5868 5864 5862 5861 5860 5856 5855 5854 5855 5855 5856 5856 5856 5859 5861 5863 5866 5868 5876 5878
5941 5942 5942 5941 5940 5936 5933 5933 5930 5927 5923 5920 5915 5913 5910 5906 5902 5897 5892 5888 5881 5876 5871 5866 5859 5857 5855 5854 5853 5850 5849 5848 5846 5847 5849 5849 5851 5852 5856 5859 5862 5869 5872
5940 5940 5939 5937 5936 5935 5935 5933 5930 5927 5923 5918 5914 5909 5906 5902 5899 5895 5890 5886 5879 5873 5867 5860 5855 5852 5848 5847 5847 5845 5844 5842 5840 5839 5840 5842 5843 5844 5847 5852 5856 5859 5866
5941 5939 5938 5936 5937 5934 5930 5928 5925 5923 5920 5918 5912 5908 5905 5902 5896 5892 5887 5882 5876 5870 5865 5859 5855 5849 5846 5844 5842 5841 5836 5834 5834 5834 5832 5833 5834 5836 5840 5844 5850 5853 5860
5939 5937 5936 5935 5932 5931 5930 5927 5925 5921 5919 5915 5912 5909 5904 5899 5893 5888 5884 5879 5874 5869 5863 5858 5852 5848 5845 5841 5840 5835 5831 5829 5828 5824 5823 5823 5825 5827 5832 5837 5843 5846 5855
5937 5937 5936 5934 5932 5931 5928 5926 5924 5921 5918 5915 5909 5905 5901 5897 5890 5887 5882 5877 5872 5866 5860 5853 5849 5845 5841 5837 5831 5825 5823 5820 5821 5820 5815 5815 5817 5821 5823 5829 5837 5840 5849
5938 5937 5936 5934 5933 5931 5928 5924 5921 5918 5915 5912 5908 5905 5901 5896 5890 5885 5881 5875 5869 5862 5855 5849 5844 5839 5833 5828 5822 5818 5814 5812 5811 5811 5804 5805 5805 5810 5816 5822 5830 5834 5843
5938 5935 5933 5933 5932 5929 5926 5924 5920 5918 5915 5911 5907 5903 5900 5896 5890 5884 5878 5872 5865 5858 5850 5844 5839 5833 5827 5820 5814 5809 5805 5802 5805 5800 5794 5792 5796 5803 5811 5817 5824 5830 5836
5934 5933 5932 5931 5929 5927 5925 5921 5919 5916 5914 5910 5907 5903 5899 5894 5888 5881 5874 5867 5860 5853 5845 5839 5834 5828 5820 5814 5808 5802 5797 5793 5791 5790 5787 5785 5787 5794 5798 5809 5816 5823 5831
5933 5932 5930 5928 5927 5926 5923 5920 5918 5916 5913 5910 5907 5903 5897 5893 5887 5880 5874 5866 5857 5849 5842 5834 5828 5823 5813 5806 5801 5796 5790 5786 5784 5781 5776 5774 5776 5784 5793 5801 5809 5818 5827
5928 5929 5928 5927 5925 5923 5921 5920 5918 5916 5913 5909 5907 5902 5897 5891 5885 5879 5872 5864 5855 5846 5838 5830 5824 5817 5809 5802 5796 5790 5786 5781 5779 5773 5771 5768 5773 5778 5786 5794 5805 5813 5821
5924 5924 5924 5923 5922 5921 5919 5919 5917 5915 5913 5909 5906 5901 5895 5890 5885 5878 5870 5862 5854 5844 5837 5830 5823 5814 5806 5800 5794 5788 5783 5777 5774 5772 5770 5771 5772 5776 5781 5788 5797 5807 5815
5922 5922 5921 5920 5920 5920 5919 5917 5916 5914 5912 5909 5905 5900 5896 5890 5884 5877 5870 5861 5852 5843 5835 5829 5821 5813 5805 5798 5793 5787 5782 5777 5774 5771 5772 5771 5772 5776 5780 5785 5794 5803 5811
5919 5918 5918 5918 5917 5919 5917 5916 5915 5913 5910 5907 5903 5898 5894 5888 5882 5875 5868 5859 5849 5840 5834 5827 5820 5812 5805 5798 5793 5787 5782 5777 5774 5772 5773 5773 5773 5777 5783 5789 5797 5806 5815
5916 5915 5915 5915 5915 5915 5915 5914 5912 5911 5908 5905 5901 5897 5891 5886 5881 5874 5866 5858 5848 5840 5833 5827 5819 5813 5806 5799 5794 5789 5784 5779 5776 5774 5776 5778 5780 5784 5791 5797 5804 5811 5818
5914 5913 5912 5913 5913 5913 5912 5911 5909 5908 5906 5903 5898 5894 5890 5885 5880 5873 5865 5857 5849 5841 5834 5827 5821 5814 5808 5802 5797 5792 5787 5783 5780 5780 5782 5785 5788 5792 5798 5804 5810 5816 5823
5911 5911 5910 5909 5910 5909 5907 5907 5905 5904 5902 5899 5895 5892 5887 5884 5878 5873 5865 5857 5850 5842 5835 5829 5822 5816 5811 5805 5800 5795 5793 5787 5785 5785 5787 5790 5794 5798 5804 5810 5814 5820 5827
5907 5907 5906 5905 5905 5904 5905 5904 5902 5900 5898 5896 5892 5889 5885 5881 5877 5872 5865 5857 5851 5843 5837 5831 5825 5819 5815 5808 5804 5798 5795 5792 5790 5789 5791 5795 5798 5803 5808 5812 5818 5823 5831
5902 5901 5900 5900 5899 5900 5900 5899 5898 5896 5894 5892 5890 5886 5883 5879 5875 5870 5864 5859 5852 5846 5839 5834 5829 5823 5817 5813 5809 5803 5800 5799 5795 5795 5795 5798 5802 5806 5810 5815 5821 5828 5834
5895 5896 5895 5895 5894 5896 5896 5895 5894 5891 5889 5886 5885 5883 5879 5875 5872 5868 5864 5858 5854 5848 5842 5836 5833 5827 5821 5816 5811 5809 5804 5803 5801 5799 5801 5804 5807 5811 5815 5820 5825 5831 5838
5889 5889 5887 5885 5885 5885 5887 5888 5887 5885 5883 5882 5880 5878 5876 5872 5869 5866 5862 5858 5853 5849 5844 5838 5833 5829 5826 5821 5816 5812 5812 5808 5809 5808 5806 5808 5813 5816 5820 5825 5830 5836 5842
5878 5878 5878 5877 5879 5879 5880 5879 5879 5878 5878 5876 5874 5873 5871 5869 5866 5862 5859 5855 5851 5848 5845 5841 5836 5832 5828 5825 5821 5818 5816 5816 5815 5817 5818 5817 5819 5824 5828 5832 5838 5842 5847